Location: Bonneuil
(46.1010°N, 2.9693°E)
Time: 01:31:08
(UTC+00:00)

ISS - Pass Details

Date: 05 March 2021
Orbit: 418 x 422 km, 51.6° (Epoch: 10 April)

Event Time Altitude Azimuth Distance (km) Brightness Sun altitude
Exits shadow 05:26:03 11° 303° (WNW) 1,469 -1.5 -10.1°
Maximum altitude 05:29:14 45° 18° (NNE) 585 -2.9 -9.6°
Drops below altitude 10° 05:32:28 10° 92° (E) 1,498 0.8 -9.0°
Sets 05:34:38 0° 99° (E) 2,360 2.2 -8.6°
